sat.trackr.live / text

‹ back to catalog

STARLINK-11642 [DTC]

NORAD 63188 · 2025-048F

PAYLOAD ACTIVE UNKNOWN

§ Identity

Operator
Country
US
Launch date
2025-03-13
Launch site
AFETR
Launch vehicle
Mass (kg)
RCS (m²)

Purposes: comms

External: N2YO · Heavens-Above · Gunter

§ Orbital elements

Epoch: 2026-09-20T21:53:22.238880Z

Period
91.67 min
Inclination
42.9993°
Eccentricity
0.0001567
Mean motion
15.70871750 rev/d
Perigee alt
355.3 km
Apogee alt
357.5 km
Semi-major
6,734.5 km
B*
8.2415e-4
RAAN
223.2431°
Arg perigee
261.5798°
Mean anomaly
98.4892°
Rev number
8,922

§ Raw data

STARLINK-11642 [DTC]1 63188U 25048F   26263.91206295  .00106813  00000+0  82415-3 0  99992 63188  42.9993 223.2431 0001567 261.5798  98.4892 15.70871750 89220

JSON: /api/v1/satellites/63188 · /tle

For live sub-satellite position, see the globe view (requires WebGL).

§ Visibility from observer

Set your observer location to see the next 7 days of passes ≥ 10°. The values pass through the URL so the page stays shareable.

No JS? Fill the form by hand. The geolocation button needs JavaScript.